AAL3226 KPSP-KPHX

Flight info

Callsign AAL3226
Flight time 0h 48m
Altitude 25000
Route HWRRD1 BLH HYDRR1
Aircraft A319/M-SDE3FGHIRWY/LB1

Departure

Time 2026-05-04 02:40
Airport Palm Springs International Airport (KPSP)

Arrival

Time 2026-05-04 03:29
Airport Phoenix Sky Harbor International Airport (KPHX)
Time Latitude Longitude Altitude Speed Heading
2026-05-04 02:32 33.82076 -116.50175 407 ft 3 kts 146°
2026-05-04 02:32 33.82048 -116.50153 413 ft 7 kts 146°
2026-05-04 02:32 33.82001 -116.50115 415 ft 9 kts 146°
2026-05-04 02:33 33.81961 -116.50077 415 ft 6 kts 141°
2026-05-04 02:33 33.81922 -116.50039 412 ft 9 kts 141°
2026-05-04 02:33 33.81871 -116.49994 412 ft 9 kts 142°
2026-05-04 02:33 33.81853 -116.49940 412 ft 5 kts 89°
2026-05-04 02:34 33.81853 -116.49937 412 ft 0 kts 89°
2026-05-04 02:37 33.81853 -116.49927 412 ft 2 kts 88°
2026-05-04 02:38 33.81853 -116.49898 412 ft 4 kts 93°
2026-05-04 02:38 33.81853 -116.49851 412 ft 7 kts 90°
2026-05-04 02:38 33.81866 -116.49800 410 ft 3 kts 48°
2026-05-04 02:38 33.81893 -116.49795 411 ft 6 kts 358°
2026-05-04 02:39 33.81941 -116.49818 408 ft 7 kts 323°
2026-05-04 02:39 33.81977 -116.49861 410 ft 6 kts 313°
2026-05-04 02:39 33.82023 -116.49918 412 ft 17 kts 319°
2026-05-04 02:39 33.82269 -116.50146 413 ft 73 kts 324°
2026-05-04 02:40 33.82826 -116.50643 432 ft 124 kts 323°
2026-05-04 02:40 33.83594 -116.51313 753 ft 141 kts 325°
2026-05-04 02:40 33.84390 -116.52018 1369 ft 143 kts 323°
2026-05-04 02:40 33.85191 -116.52720 2027 ft 143 kts 320°
2026-05-04 02:41 33.86029 -116.53451 2533 ft 159 kts 320°
2026-05-04 02:41 33.86976 -116.54268 2885 ft 181 kts 321°
2026-05-04 02:41 33.88089 -116.55219 3254 ft 205 kts 321°
2026-05-04 02:41 33.89302 -116.56247 3672 ft 228 kts 321°
2026-05-04 02:42 33.90810 -116.57003 4453 ft 248 kts 352°
2026-05-04 02:42 33.92547 -116.56551 5205 ft 270 kts 24°
2026-05-04 02:42 33.94117 -116.55179 5900 ft 288 kts 41°
2026-05-04 02:42 33.95276 -116.53176 6673 ft 299 kts 69°
2026-05-04 02:43 33.95819 -116.50752 7604 ft 301 kts 83°
2026-05-04 02:43 33.95949 -116.48234 8543 ft 303 kts 92°
2026-05-04 02:43 33.95636 -116.45727 9501 ft 303 kts 107°
2026-05-04 02:43 33.95022 -116.43304 10378 ft 304 kts 117°
2026-05-04 02:44 33.93947 -116.41028 10745 ft 323 kts 131°
2026-05-04 02:44 33.92357 -116.39042 11169 ft 334 kts 143°
2026-05-04 02:44 33.90588 -116.37186 11890 ft 340 kts 142°
2026-05-04 02:44 33.88802 -116.35287 12686 ft 344 kts 142°
2026-05-04 02:45 33.87010 -116.33363 13480 ft 347 kts 142°
2026-05-04 02:45 33.85200 -116.31412 14171 ft 351 kts 142°
2026-05-04 02:45 33.83368 -116.29437 14749 ft 357 kts 143°
2026-05-04 02:45 33.81506 -116.27425 14951 ft 362 kts 142°
2026-05-04 02:46 33.79847 -116.25110 14987 ft 370 kts 130°
2026-05-04 02:46 33.78623 -116.22345 15257 ft 382 kts 116°
2026-05-04 02:46 33.77753 -116.19295 15875 ft 388 kts 114°
2026-05-04 02:46 33.76872 -116.16196 16429 ft 395 kts 114°
2026-05-04 02:47 33.75963 -116.13046 16964 ft 402 kts 115°
2026-05-04 02:47 33.75036 -116.09845 17495 ft 410 kts 115°
2026-05-04 02:47 33.74090 -116.06580 18010 ft 417 kts 115°
2026-05-04 02:47 33.73130 -116.03259 18475 ft 424 kts 115°
2026-05-04 02:48 33.72159 -115.99897 18709 ft 427 kts 115°
2026-05-04 02:48 33.71189 -115.96523 18760 ft 428 kts 115°
2026-05-04 02:48 33.70343 -115.93076 18753 ft 433 kts 106°
2026-05-04 02:48 33.69955 -115.89446 19096 ft 441 kts 98°
2026-05-04 02:49 33.69664 -115.85816 19627 ft 444 kts 99°
2026-05-04 02:49 33.69341 -115.82115 20176 ft 447 kts 99°
2026-05-04 02:49 33.68998 -115.78335 20736 ft 451 kts 99°
2026-05-04 02:49 33.68658 -115.74627 21275 ft 455 kts 99°
2026-05-04 02:50 33.68314 -115.70827 21791 ft 460 kts 99°
2026-05-04 02:50 33.67970 -115.66998 22288 ft 464 kts 99°
2026-05-04 02:50 33.67627 -115.63124 22761 ft 469 kts 99°
2026-05-04 02:50 33.67282 -115.59221 23286 ft 472 kts 99°
2026-05-04 02:51 33.66933 -115.55294 23719 ft 475 kts 99°
2026-05-04 02:51 33.66581 -115.51338 24114 ft 479 kts 99°
2026-05-04 02:51 33.66224 -115.47347 24274 ft 481 kts 99°
2026-05-04 02:51 33.65865 -115.43349 24386 ft 482 kts 99°
2026-05-04 02:52 33.65625 -115.40697 24462 ft 483 kts 99°
2026-05-04 02:52 33.65261 -115.36676 24573 ft 486 kts 99°
2026-05-04 02:52 33.64896 -115.32642 24713 ft 487 kts 99°
2026-05-04 02:52 33.64537 -115.28636 24762 ft 478 kts 99°
2026-05-04 02:53 33.64181 -115.24692 24766 ft 474 kts 99°
2026-05-04 02:53 33.63821 -115.20772 24766 ft 472 kts 99°
2026-05-04 02:53 33.63459 -115.16858 24764 ft 471 kts 99°
2026-05-04 02:53 33.63094 -115.12956 24758 ft 471 kts 99°
2026-05-04 02:54 33.62727 -115.09051 24758 ft 471 kts 99°
2026-05-04 02:54 33.62357 -115.05145 24758 ft 471 kts 99°
2026-05-04 02:54 33.61990 -115.01245 24758 ft 471 kts 99°
2026-05-04 02:54 33.61624 -114.97344 24754 ft 469 kts 99°
2026-05-04 02:55 33.60889 -114.89577 24730 ft 468 kts 99°
2026-05-04 02:55 33.60519 -114.85693 24735 ft 468 kts 99°
2026-05-04 02:55 33.60149 -114.81809 24735 ft 468 kts 99°
2026-05-04 02:56 33.59779 -114.77931 24736 ft 468 kts 99°
2026-05-04 02:56 33.59221 -114.74101 24736 ft 465 kts 107°
2026-05-04 02:56 33.58482 -114.70322 24738 ft 465 kts 107°
2026-05-04 02:56 33.57746 -114.66548 24739 ft 465 kts 107°
2026-05-04 02:57 33.57020 -114.62824 24740 ft 465 kts 107°
2026-05-04 02:57 33.56285 -114.59044 24741 ft 465 kts 107°
2026-05-04 02:57 33.55551 -114.55267 24740 ft 465 kts 107°
2026-05-04 02:57 33.54818 -114.51486 24740 ft 465 kts 107°
2026-05-04 02:58 33.54083 -114.47709 24742 ft 465 kts 107°
2026-05-04 02:58 33.53345 -114.43932 24748 ft 466 kts 107°
2026-05-04 02:58 33.52604 -114.40153 24749 ft 466 kts 107°
2026-05-04 02:58 33.51860 -114.36378 24767 ft 466 kts 107°
2026-05-04 02:59 33.51113 -114.32602 24763 ft 466 kts 107°
2026-05-04 02:59 33.50366 -114.28825 24762 ft 465 kts 107°
2026-05-04 02:59 33.49621 -114.25054 24771 ft 465 kts 107°
2026-05-04 02:59 33.48875 -114.21283 24771 ft 465 kts 107°
2026-05-04 03:00 33.48130 -114.17517 24775 ft 465 kts 107°
2026-05-04 03:00 33.47383 -114.13752 24772 ft 465 kts 107°
2026-05-04 03:00 33.46634 -114.09988 24777 ft 464 kts 107°
2026-05-04 03:00 33.45881 -114.06221 24784 ft 469 kts 108°
2026-05-04 03:01 33.45113 -114.02398 24783 ft 475 kts 107°
2026-05-04 03:01 33.44339 -113.98546 24783 ft 476 kts 107°
2026-05-04 03:01 33.43564 -113.94692 24792 ft 477 kts 107°
2026-05-04 03:01 33.42797 -113.90864 24790 ft 469 kts 107°
2026-05-04 03:02 33.42043 -113.87088 24789 ft 465 kts 107°
2026-05-04 03:02 33.41287 -113.83325 24787 ft 464 kts 107°
2026-05-04 03:02 33.40528 -113.79570 24786 ft 464 kts 107°
2026-05-04 03:02 33.39770 -113.75814 24786 ft 464 kts 108°
2026-05-04 03:03 33.39011 -113.72059 24761 ft 464 kts 108°
2026-05-04 03:03 33.38260 -113.68357 24777 ft 464 kts 107°
2026-05-04 03:03 33.37499 -113.64608 24500 ft 462 kts 107°
2026-05-04 03:03 33.36741 -113.60871 23944 ft 462 kts 107°
2026-05-04 03:04 33.35985 -113.57146 23551 ft 457 kts 107°
2026-05-04 03:04 33.35240 -113.53479 23264 ft 452 kts 107°
2026-05-04 03:04 33.34496 -113.49840 22742 ft 449 kts 107°
2026-05-04 03:04 33.33757 -113.46231 22208 ft 445 kts 107°
2026-05-04 03:05 33.33057 -113.42637 21590 ft 442 kts 106°
2026-05-04 03:05 33.32421 -113.39063 21188 ft 436 kts 105°
2026-05-04 03:05 33.31832 -113.35526 20937 ft 433 kts 104°
2026-05-04 03:05 33.31259 -113.32008 20659 ft 430 kts 104°
2026-05-04 03:06 33.30682 -113.28507 20398 ft 427 kts 105°
2026-05-04 03:06 33.30097 -113.25036 20156 ft 425 kts 105°
2026-05-04 03:06 33.29512 -113.21584 19989 ft 423 kts 105°
2026-05-04 03:06 33.28971 -113.18128 19771 ft 422 kts 104°
2026-05-04 03:07 33.28470 -113.14678 19495 ft 420 kts 103°
2026-05-04 03:07 33.27993 -113.11241 19224 ft 418 kts 103°
2026-05-04 03:07 33.27545 -113.07843 19027 ft 408 kts 100°
2026-05-04 03:07 33.27472 -113.04479 18727 ft 403 kts 90°
2026-05-04 03:08 33.27581 -113.01154 18508 ft 399 kts 90°
2026-05-04 03:08 33.27679 -112.97848 18232 ft 396 kts 90°
2026-05-04 03:08 33.27764 -112.94613 17936 ft 394 kts 91°
2026-05-04 03:08 33.27842 -112.91349 17652 ft 391 kts 91°
2026-05-04 03:09 33.27916 -112.88113 17379 ft 389 kts 91°
2026-05-04 03:09 33.27990 -112.84903 17142 ft 382 kts 91°
2026-05-04 03:09 33.28073 -112.81783 16963 ft 371 kts 90°
2026-05-04 03:09 33.28259 -112.78723 16629 ft 367 kts 87°
2026-05-04 03:10 33.28536 -112.75713 16288 ft 362 kts 85°
2026-05-04 03:10 33.28851 -112.72743 15944 ft 358 kts 85°
2026-05-04 03:10 33.29167 -112.69809 15602 ft 354 kts 85°
2026-05-04 03:10 33.29470 -112.66907 15264 ft 350 kts 86°
2026-05-04 03:11 33.29758 -112.64033 14927 ft 347 kts 86°
2026-05-04 03:11 33.30033 -112.61182 14588 ft 344 kts 86°
2026-05-04 03:11 33.30298 -112.58348 14253 ft 341 kts 86°
2026-05-04 03:11 33.30558 -112.55545 13921 ft 338 kts 87°
2026-05-04 03:12 33.30813 -112.52761 13583 ft 335 kts 87°
2026-05-04 03:12 33.31065 -112.50009 13236 ft 332 kts 87°
2026-05-04 03:12 33.31315 -112.47282 12888 ft 329 kts 87°
2026-05-04 03:12 33.31563 -112.44571 12567 ft 326 kts 87°
2026-05-04 03:13 33.31806 -112.41889 12259 ft 323 kts 87°
2026-05-04 03:13 33.32046 -112.39235 11948 ft 320 kts 88°
2026-05-04 03:13 33.32284 -112.36596 11638 ft 318 kts 88°
2026-05-04 03:13 33.32520 -112.33984 11320 ft 314 kts 88°
2026-05-04 03:14 33.32757 -112.31403 11101 ft 308 kts 88°
2026-05-04 03:14 33.32992 -112.28897 10976 ft 298 kts 88°
2026-05-04 03:14 33.33221 -112.26468 10713 ft 293 kts 88°
2026-05-04 03:14 33.33439 -112.24079 10363 ft 293 kts 88°
2026-05-04 03:15 33.33655 -112.21659 10003 ft 290 kts 88°
2026-05-04 03:15 33.33868 -112.19297 9647 ft 282 kts 88°
2026-05-04 03:15 33.34079 -112.16952 8053 ft 304 kts 86°
2026-05-04 03:15 33.34311 -112.14221 6937 ft 321 kts 86°
2026-05-04 03:16 33.34520 -112.11755 7170 ft 285 kts 88°
2026-05-04 03:16 33.34720 -112.09470 7044 ft 266 kts 89°
2026-05-04 03:16 33.34721 -112.07332 7001 ft 252 kts 95°
2026-05-04 03:16 33.34698 -112.05257 6987 ft 248 kts 95°
2026-05-04 03:17 33.34677 -112.03190 6985 ft 249 kts 95°
2026-05-04 03:17 33.34654 -112.01118 6982 ft 250 kts 95°
2026-05-04 03:17 33.34630 -111.99046 6982 ft 248 kts 95°
2026-05-04 03:17 33.34606 -111.96986 6983 ft 247 kts 95°
2026-05-04 03:18 33.34581 -111.94925 6989 ft 249 kts 95°
2026-05-04 03:18 33.34548 -111.92854 6996 ft 250 kts 95°
2026-05-04 03:18 33.34512 -111.90781 7059 ft 249 kts 95°
2026-05-04 03:18 33.34472 -111.88717 7059 ft 248 kts 95°
2026-05-04 03:19 33.34432 -111.86651 7051 ft 249 kts 95°
2026-05-04 03:19 33.34393 -111.84567 6810 ft 250 kts 95°
2026-05-04 03:19 33.34355 -111.82496 6575 ft 249 kts 95°
2026-05-04 03:19 33.34315 -111.80432 6340 ft 248 kts 95°
2026-05-04 03:20 33.34288 -111.78371 6098 ft 249 kts 92°
2026-05-04 03:20 33.34389 -111.76287 5853 ft 252 kts 90°
2026-05-04 03:20 33.34526 -111.74191 5538 ft 254 kts 89°
2026-05-04 03:20 33.34665 -111.72089 5294 ft 253 kts 89°
2026-05-04 03:21 33.34811 -111.69994 5053 ft 251 kts 88°
2026-05-04 03:21 33.35347 -111.68026 4815 ft 252 kts 57°
2026-05-04 03:21 33.36625 -111.66652 4577 ft 247 kts 22°
2026-05-04 03:21 33.38253 -111.66247 4333 ft 237 kts 354°
2026-05-04 03:22 33.39888 -111.66334 4087 ft 234 kts 350°
2026-05-04 03:22 33.41446 -111.66703 3983 ft 223 kts 327°
2026-05-04 03:22 33.42509 -111.67892 3978 ft 204 kts 290°
2026-05-04 03:22 33.42860 -111.69476 3983 ft 194 kts 266°
2026-05-04 03:23 33.42853 -111.71084 3987 ft 194 kts 265°
2026-05-04 03:23 33.42840 -111.72696 4071 ft 193 kts 265°
2026-05-04 03:23 33.42827 -111.74299 4070 ft 193 kts 265°
2026-05-04 03:23 33.42825 -111.75907 4071 ft 193 kts 265°
2026-05-04 03:24 33.42831 -111.77499 4071 ft 194 kts 265°
2026-05-04 03:24 33.42838 -111.79114 4073 ft 194 kts 265°
2026-05-04 03:24 33.42844 -111.80729 4064 ft 194 kts 266°
2026-05-04 03:24 33.42852 -111.82348 3908 ft 193 kts 267°
2026-05-04 03:25 33.42859 -111.83933 3675 ft 188 kts 265°
2026-05-04 03:25 33.42864 -111.85436 3472 ft 171 kts 265°
2026-05-04 03:25 33.42868 -111.86794 3216 ft 155 kts 264°
2026-05-04 03:25 33.42871 -111.88022 3033 ft 140 kts 264°
2026-05-04 03:26 33.42873 -111.89146 2863 ft 132 kts 265°
2026-05-04 03:26 33.42874 -111.90234 2699 ft 130 kts 264°
2026-05-04 03:26 33.42874 -111.91317 2532 ft 130 kts 264°
2026-05-04 03:26 33.42876 -111.92398 2365 ft 129 kts 264°
2026-05-04 03:27 33.42877 -111.93466 2211 ft 126 kts 264°
2026-05-04 03:27 33.42878 -111.94522 2079 ft 129 kts 265°
2026-05-04 03:27 33.42879 -111.95594 1918 ft 130 kts 266°
2026-05-04 03:27 33.42881 -111.96675 1759 ft 131 kts 268°
2026-05-04 03:28 33.42885 -111.97758 1576 ft 128 kts 264°
2026-05-04 03:28 33.42891 -111.98817 1362 ft 130 kts 262°
2026-05-04 03:28 33.42888 -111.99923 1199 ft 131 kts 262°
2026-05-04 03:28 33.42882 -112.00958 1129 ft 117 kts 268°
2026-05-04 03:29 33.42872 -112.01619 1128 ft 58 kts 269°
2026-05-04 03:29 33.42862 -112.02073 1125 ft 48 kts 272°
2026-05-04 03:29 33.42885 -112.02342 1124 ft 20 kts 280°
2026-05-04 03:29 33.42920 -112.02489 1119 ft 10 kts 300°
2026-05-04 03:30 33.42969 -112.02542 1120 ft 9 kts 345°
2026-05-04 03:30 33.43030 -112.02547 1125 ft 8 kts 356°
2026-05-04 03:30 33.43072 -112.02548 1121 ft 5 kts 356°
2026-05-04 03:30 33.43089 -112.02549 1126 ft 7 kts 359°
2026-05-04 03:31 33.43150 -112.02545 1124 ft 11 kts
2026-05-04 03:31 33.43210 -112.02495 1120 ft 12 kts 59°
2026-05-04 03:31 33.43214 -112.02397 1125 ft 12 kts 87°
2026-05-04 03:31 33.43219 -112.02291 1125 ft 13 kts 97°
2026-05-04 03:32 33.43218 -112.02183 1126 ft 13 kts 91°
2026-05-04 03:32 33.43204 -112.02087 1125 ft 0 kts 114°